CDT,Max TemperatureF,Mean TemperatureF,Min TemperatureF,Max Dew PointF,MeanDew PointF,Min DewpointF,Max Humidity, Mean Humidity, Min Humidity, Max Sea Level PressureIn, Mean Sea Level PressureIn, Min Sea Level PressureIn, Max VisibilityMiles, Mean VisibilityMiles, Min VisibilityMiles, Max Wind SpeedMPH, Mean Wind SpeedMPH, Max Gust SpeedMPH,PrecipitationIn, CloudCover, Events, WindDirDegrees
2011-10-1,64,48,32,40,36,31,92,60,28,30.38,30.30,30.22,10,10,10,9,3,13,0.00,0,,66
2011-10-2,73,54,34,38,35,32,92,59,25,30.31,30.25,30.18,10,10,10,9,3,13,0.00,0,,180
2011-10-3,78,58,37,42,36,32,92,56,19,30.27,30.21,30.17,10,10,7,8,2,13,0.00,0,,163
2011-10-4,83,63,43,44,39,35,76,47,18,30.27,30.19,30.13,10,10,9,16,7,21,0.00,0,,160
2011-10-5,83,68,52,49,44,40,71,47,22,30.20,30.13,30.08,10,10,9,15,8,22,0.00,0,,163
2011-10-6,82,66,52,52,48,45,83,52,29,30.16,30.10,30.04,10,10,10,18,10,25,0.00,0,,153
2011-10-7,85,74,62,54,51,47,67,49,31,30.14,30.09,30.04,10,10,10,26,15,35,0.00,0,,165
2011-10-8,84,72,59,56,52,48,75,54,33,30.18,30.15,30.11,10,10,7,21,12,28,0.00,0,,168
2011-10-9,81,67,52,56,52,48,86,61,35,30.26,30.19,30.13,10,10,9,20,10,28,0.00,0,,145
2011-10-10,77,64,50,60,52,47,100,73,46,30.12,30.05,29.97,10,10,8,15,8,18,0.03,3,Rain,162
2011-10-11,78,66,53,61,56,51,100,70,40,29.98,29.93,29.83,10,6,0,13,6,17,0.00,2,Fog,159
2011-10-12,69,63,57,63,59,56,100,93,73,29.81,29.68,29.61,10,6,1,21,9,28,1.01,6,Rain-Thunderstorm,201
2011-10-13,70,60,48,57,51,42,100,80,38,29.73,29.66,29.63,10,9,6,25,10,33,0.00,4,,292
2011-10-14,63,54,44,42,38,33,71,54,37,29.93,29.82,29.71,10,10,10,29,14,36,0.00,1,,288
2011-10-15,68,54,40,39,36,31,82,53,24,30.04,29.95,29.81,10,10,10,22,10,29,0.00,0,,249
2011-10-16,60,49,38,43,38,31,77,62,47,30.01,29.91,29.76,10,10,10,23,9,26,T,0,,280
2011-10-17,50,42,34,43,37,30,89,75,61,30.04,29.98,29.93,10,10,10,13,7,15,0.02,4,Rain,265
2011-10-18,51,47,42,39,35,33,83,70,56,29.98,29.94,29.88,10,10,10,24,14,30,T,4,,325
2011-10-19,50,45,40,38,34,31,82,68,53,29.96,29.93,29.90,10,10,9,26,17,33,T,8,Rain,342
2011-10-20,55,45,34,34,31,28,89,65,41,30.04,29.92,29.86,10,10,10,26,15,36,0.00,2,,309
2011-10-21,62,45,28,34,31,27,85,60,34,30.15,30.09,30.04,10,9,2,18,6,31,0.00,0,,246
2011-10-22,68,53,37,42,37,34,85,60,34,30.11,30.06,30.00,10,9,6,13,6,16,0.00,1,,289
2011-10-23,74,58,41,48,43,38,96,65,33,30.02,29.94,29.85,10,10,7,21,8,28,T,2,Rain-Thunderstorm,227
2011-10-24,73,55,36,45,41,36,100,65,29,30.14,30.05,29.94,10,9,2,17,8,23,0.00,0,,209
2011-10-25,79,63,47,54,49,41,74,58,42,29.92,29.77,29.67,10,10,10,26,15,36,0.00,1,,226
2011-10-26,55,49,43,44,40,37,86,73,59,30.06,29.99,29.88,10,10,8,21,13,26,0.00,7,,344
2011-10-27,57,45,33,39,31,23,92,62,32,30.17,30.10,30.04,10,10,10,18,6,21,T,3,Rain,308
2011-10-28,61,44,27,30,25,20,85,55,25,30.18,30.13,30.05,10,10,10,22,9,26,0.00,1,,255
2011-10-29,60,43,26,27,22,20,75,50,24,30.16,30.07,29.96,10,10,7,18,7,22,0.00,0,,206
2011-10-30,57,46,34,43,34,25,82,60,38,30.01,29.94,29.89,10,10,5,24,11,31,0.07,3,Rain,239
2011-10-31,55,42,28,34,28,26,89,63,35,30.13,30.07,30.03,10,10,10,10,7,,0.00,0,,236